Tracking 35331 objects as of 16-Sep-2026
HD Live streaming from Space Station
objects crossing your sky now

DELTA 1 DEB

Track DELTA 1 DEB now!
10-day predictions


NORAD ID: 9681
Int'l Code: 1975-004GC
Launch date: January 22, 1975
Source: United States (US)
Launch site: AIR FORCE WESTERN TEST RANGE (AFWTR)

Note: This is SATELLITE DEBRIS
Your satellite tracking list
Your tracking list is empty




NASA's NSSDC Master Catalog

Two Line Element Set (TLE):
1 09681U 75004GC  26259.11004759  .00000106  00000-0  42825-4 0  9993
2 09681  97.9782 314.1598 0054892   7.9385 352.2663 14.43249296656906
Source of the keplerian elements: AFSPC